Вернуться в каталог

STARLINK-36215

АктивенСвязьVLEO
NORAD 67100·PAYLOAD·🇺🇸 United States

Запущен Dec 14, 2025 с Vandenberg Space Force Base

Loading…

Ближайшие Пролёты (ближайшие 24 часа)

TLE

СвежийSource: CelesTrak SupGP

Эпоха: Sep 15, 2026, 03:11 UTC

1 67100C 25298AB  26258.13312500 -.00041982  00000+0 -35172-2 0  2581
2 67100  70.0002 256.7937 0003598 268.6908 110.2212 14.98361624    12

Отслеживайте STARLINK-36215 в реальном времени с AllMySat

Download on the App Store